sat.trackr.live / text

‹ back to catalog

KUIPER-00209

NORAD 67776 · 2026-030N

PAYLOAD ACTIVE UNKNOWN

§ Identity

Operator
Country
US
Launch date
2026-02-12
Launch site
FRGUI
Launch vehicle
Mass (kg)
RCS (m²)

External: N2YO · Heavens-Above · Gunter

§ Orbital elements

Epoch: 2026-05-24T22:22:18.115104Z

Period
97.30 min
Inclination
51.8985°
Eccentricity
0.0000464
Mean motion
14.79912625 rev/d
Perigee alt
629.3 km
Apogee alt
629.9 km
Semi-major
7,007.7 km
B*
2.5857e-4
RAAN
231.0584°
Arg perigee
169.5338°
Mean anomaly
190.5634°
Rev number
1,653

§ Raw data

KUIPER-002091 67776U 26030N   26144.93215411  .00001750  00000+0  25857-3 0  99992 67776  51.8985 231.0584 0000464 169.5338 190.5634 14.79912625 16532

JSON: /api/v1/satellites/67776 · /tle

For live sub-satellite position, see the globe view (requires WebGL).

§ Visibility from observer

Set your observer location to see the next 7 days of passes ≥ 10°. The values pass through the URL so the page stays shareable.

No JS? Fill the form by hand. The geolocation button needs JavaScript.